CW1334 Weather Reports


time (UTC)temp
F
wind
direction
speed
knots
gust
knots
rain 1hr
in
rain 24hr
in
rain mn
in
humidity
%
barometer
mb
20260504081553 48 17 13.0 18.2 0.00 0.00 0.00 57 1014.3
20260504050105 55 33 15.6 25.2 0.00 0.00 0.00 37 1009.8
20260504044559 57 5 16.5 23.5 0.00 0.00 0.00 38 1009.5
20260504043055 57 27 8.7 13.9 0.00 0.00 0.00 38 1009.0
20260504041557 58 41 7.8 13.0 0.00 0.00 0.00 37 1008.6
20260504040056 58 5 7.8 12.2 0.00 0.00 0.00 36 1008.2
20260504034551 59 28 8.7 13.0 0.00 0.00 0.00 36 1008.1
20260504033052 60 37 7.8 17.4 0.00 0.00 0.00 35 1007.6
20260504031554 61 21 11.3 17.4 0.00 0.00 0.00 34 1007.4
20260504030058 62 29 10.4 15.6 0.00 0.00 0.00 32 1007.1
20260504024607 63 41 9.6 14.8 0.00 0.00 0.00 29 1006.9
20260504023055 65 20 9.6 13.0 0.00 0.00 0.00 26 1006.8
20260504021555 68 360 4.3 8.7 0.00 0.00 0.00 20 1006.6
20260504020051 69 348 5.2 12.2 0.00 0.00 0.00 20 1006.7
20260504014556 70 13 7.0 13.9 0.00 0.00 0.00 19 1006.8
20260504013056 71 355 8.7 14.8 0.00 0.00 0.00 19 1006.7
20260504011553 72 360 8.7 16.5 0.00 0.00 0.00 19 1006.8
20260504004559 73 11 8.7 15.6 0.00 0.00 0.00 19 1006.8
20260504003054 73 360 9.6 16.5 0.00 0.00 0.00 18 1007.1
20260504001552 74 333 8.7 16.5 0.00 0.00 0.00 18 1007.2
20260504000132 73 345 7.8 13.9 0.00 0.00 0.00 18 1007.2
20260503234559 73 323 9.6 18.2 0.00 0.00 0.00 18 1007.2
20260503233052 73 300 9.6 19.1 0.00 0.00 0.00 18 1007.4
20260503231555 73 324 7.0 16.5 0.00 0.00 0.00 18 1007.4
20260503230052 73 297 12.2 20.0 0.00 0.00 0.00 18 1007.5
20260503224555 73 348 12.2 20.0 0.00 0.00 0.00 18 1007.6
20260503223053 74 334 11.3 20.0 0.00 0.00 0.00 18 1007.8
20260503221556 73 294 7.8 18.2 0.00 0.00 0.00 18 1007.9
20260503220054 73 184 9.6 19.1 0.00 0.00 0.00 18 1008.2
20260503214555 72 251 8.7 18.2 0.00 0.00 0.00 19 1008.2
20260503213055 72 265 10.4 15.6 0.00 0.00 0.00 19 1008.3
20260503211615 72 286 13.0 20.0 0.00 0.00 0.00 19 1008.7
20260503210056 72 292 9.6 20.9 0.00 0.00 0.00 19 1008.9
20260503204551 71 296 7.8 17.4 0.00 0.00 0.00 19 1009.0
20260503203110 71 274 9.6 16.5 0.00 0.00 0.00 20 1009.2
20260503201556 71 298 7.8 16.5 0.00 0.00 0.00 20 1009.4
20260503200058 72 305 8.7 16.5 0.00 0.00 0.00 19 1009.5
20260503194558 71 321 7.0 13.0 0.00 0.00 0.00 20 1009.7
20260503193054 69 275 10.4 20.0 0.00 0.00 0.00 18 1010.0
20260503191555 70 302 10.4 22.6 0.00 0.00 0.00 18 1010.3
20260503190059 69 253 12.2 18.2 0.00 0.00 0.00 19 1010.4
20260503184557 70 270 7.8 14.8 0.00 0.00 0.00 20 1010.4
20260503183054 69 327 8.7 15.6 0.00 0.00 0.00 21 1010.7
20260503181603 69 298 3.5 13.0 0.00 0.00 0.00 22 1010.9
20260503180057 68 285 10.4 20.9 0.00 0.00 0.00 22 1011.1
20260503174555 68 279 8.7 17.4 0.00 0.00 0.00 24 1011.3
20260503173058 68 298 6.1 13.9 0.00 0.00 0.00 27 1011.4
20260503171559 67 298 7.0 11.3 0.00 0.00 0.00 28 1011.5